Simultaneous Nadir Overpasses (SNOs) Predictions

Prediction of SNOs between GOES-16 and TERRA Satellite Orbit:

Table of predicted SNOs for the next 14.0 days since TLE Epoch: 4/30/2022
Index Date Time (GOES-16) GOES-16 Lat,Lon TERRA Lat,Lon Distance(km) Time Diff (sec)
1 04/30/2022 15:17:05 0.06, -75.20 -0.19, -73.87 150.48 80
2 05/01/2022 03:37:21 -0.06, -75.18 -0.88, -79.07 441.67 12
3 05/02/2022 15:04:51 0.06, -75.20 -0.87, -70.92 486.45 80
4 05/03/2022 03:26:14 -0.06, -75.18 -0.25, -76.11 105.60 80
5 05/05/2022 03:11:19 -0.05, -75.19 0.39, -73.16 230.86 80
6 05/05/2022 15:32:32 0.05, -75.20 0.73, -78.31 354.10 80
7 05/07/2022 15:20:17 0.04, -75.21 0.07, -75.36 16.95 80
8 05/09/2022 15:10:42 0.04, -75.22 -0.54, -72.40 320.94 80
9 05/10/2022 03:32:04 -0.04, -75.22 -0.57, -77.59 270.43 80
10 05/12/2022 03:17:08 -0.03, -75.24 0.07, -74.63 68.55 80
11 05/14/2022 03:04:52 -0.03, -75.26 0.71, -71.67 407.94 80
